Station WYCM6 - 8747437 - Bay Waveland Yacht Club, MS Image indicating link to RSS feed of recent meteorological observations for station WYCM6


Conditions at WYCM6 as of
(11:18 pm CDT on 07/13/2024)
0418 GMT on 07/14/2024:
     

Click on the graph icon in the table below to see a time series plot of the last five days of that observation.

5-day plot - Wind Direction Wind Direction (WDIR): SE ( 130 deg true )
5-day plot - Wind Speed Wind Speed (WSPD): 1.0 kts
5-day plot - Wind Gust Wind Gust (GST): 1.9 kts
5-day plot - Atmospheric Pressure Atmospheric Pressure (PRES):30.13 in
5-day plot - Air Temperature Air Temperature (ATMP): 86.9 °F
5-day plot - Water Temperature Water Temperature (WTMP): 88.0 °F
5-day plot - Wind Speed at 10 Meters Wind Speed at 10 meters (WSPD10M): 1.9 kts
5-day plot - Wind Speed at 20 Meters Wind Speed at 20 meters (WSPD20M): 1.9 kts
5-day plot -  Wind Speed, Wind Gust and Atmospheric Pressure Combined plot of Wind Speed, Gust, and Air Pressure
NOS Water Level Observation Network Water Level
Previous observations
TIME
(CDT)
5-day plot - Wind Direction
WDIR
 
5-day plot - Wind Speed
WSPD
kts
5-day plot - Wind Gust
GST
kts
5-day plot - Wave Height
WVHT
ft
5-day plot - Dominant Wave Period
DPD
sec
5-day plot - Average Wave Period
APD
sec
5-day plot - Mean Wave Direction
MWD
 
5-day plot - Atmospheric Pressure
PRES
in
5-day plot - Pressure Tendency
PTDY
in
5-day plot - Air Temperature
ATMP
°F
5-day plot - Water Temperature
WTMP
°F
5-day plot - Dew Point
DEWP
°F
5-day plot - Salinity
SAL
psu
5-day plot - Visibility
VIS
nmi
5-day plot - Tide (above MLLW)
TIDE
ft
2024-07-13 11:12 pm SE 1.0 1.9----30.13- 87.1 88.0----
2024-07-13 11:06 pm- 0.0 1.9----30.13- 86.4 88.0----
2024-07-13 11:00 pm- 0.0 1.0----30.13+0.02 87.1 88.2----
2024-07-13 10:54 pm- 0.0 1.0----30.13- 86.7 88.2----
2024-07-13 10:48 pm- 0.0 1.0----30.14- 86.5 88.2----
2024-07-13 10:42 pm- 0.0 0.0----30.14- 86.9 88.2----
2024-07-13 10:36 pm- 0.0 0.0----30.14- 86.7 88.2----
2024-07-13 10:30 pm- 0.0 1.0----30.13- 86.7 88.2----
2024-07-13 10:24 pm- 0.0 1.0----30.13- 86.7 88.2----
2024-07-13 10:18 pm- 0.0 0.0----30.13- 86.7 88.2----
2024-07-13 10:12 pm- 0.0 0.0----30.13- 87.1 88.2----
2024-07-13 10:06 pm- 0.0 1.9----30.13- 86.7 88.2----
2024-07-13 10:00 pmWNW 1.9 1.9----30.13+0.03 86.5 88.2----
2024-07-13 09:54 pmWNW 1.9 1.9----30.13- 85.1 88.2----
2024-07-13 09:48 pm- 0.0 0.0----30.13- 86.0 88.2----
2024-07-13 09:42 pm- 0.0 0.0----30.13- 86.2 88.2----
2024-07-13 09:36 pm- 0.0 1.0----30.13- 86.2 88.2----
2024-07-13 09:30 pm- 0.0 1.0----30.13- 85.6 88.3----
2024-07-13 09:24 pm- 0.0 1.0----30.13- 85.6 88.3----
2024-07-13 09:18 pmWNW 1.0 1.0----30.13- 86.0-----
2024-07-13 09:12 pm- 0.0 0.0----30.12- 86.2-----
2024-07-13 09:06 pm- 0.0 0.0----30.12- 86.5-----
2024-07-13 09:00 pm- 0.0 1.9----30.12+0.00 85.8 88.3----
2024-07-13 08:54 pm W 1.9 1.9----30.12- 85.8 88.5----
2024-07-13 08:48 pm- 0.0 0.0----30.12-- 88.5----
2024-07-13 08:42 pm- 0.0 1.0----30.12-- 88.5----
2024-07-13 08:36 pmWNW 1.9 1.9----30.12-- 88.5----
2024-07-13 08:30 pmWSW 1.0 1.9----30.12- 85.8 88.5----
2024-07-13 08:24 pm- 0.0 0.0----30.12- 86.4 88.5----
2024-07-13 08:18 pm- 0.0 1.0----30.12-- 88.5----
2024-07-13 08:12 pm- 0.0 0.0----30.12-- 88.5----
2024-07-13 08:06 pm- 0.0 1.9----30.12-- 88.5----
2024-07-13 08:00 pm SW 1.0 1.0----30.11+0.02 87.6 88.5----
2024-07-13 07:54 pm- 0.0 1.0----30.12- 87.3 88.5----
2024-07-13 07:48 pm- 0.0 1.0------- 88.5----
2024-07-13 07:42 pm- 0.0 2.9------- 88.5----
2024-07-13 07:36 pm E 2.9 5.1------- 88.5----
2024-07-13 07:30 pm E 5.1 5.1----30.11- 88.3 88.3----
2024-07-13 07:24 pmESE 2.9 4.1----30.11- 89.4 88.3----
2024-07-13 07:18 pmESE 4.1 5.1----30.11- 89.1 88.3----
2024-07-13 07:12 pmESE 5.1 5.1----30.10- 88.5 88.2----
2024-07-13 07:06 pmESE 4.1 5.1----30.11- 88.5 88.2----
2024-07-13 07:00 pmESE 5.1 7.0----30.10+0.01 88.2 88.2----
2024-07-13 06:54 pmSSE 2.9 4.1----30.10- 87.6 88.2----
2024-07-13 06:48 pmSSE 1.9 2.9----30.10- 85.6 88.2----
2024-07-13 06:42 pm S 1.9 1.9----30.09- 85.6 88.0----
2024-07-13 06:36 pmSSE 1.9 5.1----30.09- 84.6 88.0----
2024-07-13 06:30 pmESE 4.1 5.1----30.09- 82.4 88.3----
2024-07-13 06:24 pm E 2.9 4.1----30.10- 80.4 88.0----
2024-07-13 06:18 pm N 1.9 5.1----30.10-- 87.8----
2024-07-13 06:12 pm N 6.0 8.0----30.11-- 88.2----
2024-07-13 06:06 pmWNW 5.1 15.0----30.11-- 89.1----
2024-07-13 06:00 pm N 18.1 31.1----30.13+0.01- 88.5----
2024-07-13 05:54 pm N 22.9 34.0----30.12- 88.5 88.9----
2024-07-13 05:48 pm N 18.1 21.0----30.13- 85.3 89.1----
2024-07-13 05:42 pmNNE 13.0 18.1----30.13- 85.5 89.1----
2024-07-13 05:36 pmENE 15.0 21.0----30.11- 89.2 89.1----
2024-07-13 05:30 pm NE 13.0 18.1----30.11-- 89.2----
2024-07-13 05:24 pmNNE 2.9 11.1----30.11-- 89.2----
2024-07-13 05:18 pmSSW 7.0 9.9----30.10- 93.6 89.2----
2024-07-13 05:12 pmSSW 7.0 9.9----30.10- 93.9 89.4----
2024-07-13 05:06 pm S 7.0 9.9----30.09- 93.7 89.4----
2024-07-13 05:00 pmSSW 8.0 9.9----30.09-0.04 94.3 89.4----
2024-07-13 04:54 pmSSW 5.1 8.9----30.10- 95.9 89.4----
2024-07-13 04:48 pmSSW 7.0 9.9----30.09- 94.5 89.6----
2024-07-13 04:42 pmSSW 7.0 8.9----30.09- 95.2 89.6----
2024-07-13 04:36 pmSSW 7.0 8.9----30.09- 96.8 89.6----
2024-07-13 04:30 pm S 6.0 8.9----30.10-- 89.6----
2024-07-13 04:24 pmSSW 6.0 11.1----30.10-- 89.8----
2024-07-13 04:18 pmSSW 5.1 11.1----30.10- 97.3 89.8----
2024-07-13 04:12 pm S 8.0 12.0----30.10- 96.4 89.8----
2024-07-13 04:06 pmSSW 6.0 9.9----30.09- 97.2 89.8----
2024-07-13 04:00 pmSSW 7.0 11.1----30.09-0.06 95.9 89.8----
2024-07-13 03:54 pm S 7.0 12.0----30.10- 96.3 89.8----
2024-07-13 03:48 pmSSW 6.0 9.9----30.10- 96.3 90.0----
2024-07-13 03:42 pm S 8.0 12.0----30.10- 95.5 90.0----
2024-07-13 03:36 pmSSW 8.0 11.1----30.10- 95.7 90.0----
2024-07-13 03:30 pmSSW 6.0 11.1----30.10-- 90.0----
2024-07-13 03:24 pmSSW 7.0 12.0----30.10-- 90.0----
2024-07-13 03:18 pmSSW 8.0 11.1----30.11- 95.5 90.0----
2024-07-13 03:12 pmSSW 7.0 11.1----30.11- 95.9 90.0----
2024-07-13 03:06 pmSSW 8.9 11.1----30.11- 95.0 90.0----
2024-07-13 03:00 pmSSW 8.0 11.1----30.11-0.04- 90.0----
2024-07-13 02:54 pmSSW 8.9 11.1----30.12-- 90.0----
2024-07-13 02:48 pmSSW 7.0 9.9----30.12-- 90.0----
2024-07-13 02:42 pm SW 6.0 8.0----30.12-- 90.0----
2024-07-13 02:36 pm SW 5.1 7.0----30.12-- 90.0----
2024-07-13 02:30 pm SW 5.1 8.0----30.12- 93.6 90.0----
2024-07-13 02:24 pm SW 6.0 8.9----30.12- 93.4 90.0----
2024-07-13 02:18 pm SW 5.1 7.0----30.13- 92.1 90.0----
2024-07-13 02:12 pm SW 5.1 7.0----30.13- 89.4 90.0----
2024-07-13 02:06 pmWSW 5.1 8.0----30.13- 90.5 90.0----
2024-07-13 02:00 pmWSW 7.0 11.1----30.13-0.03- 90.0----
2024-07-13 01:54 pmWSW 8.9 12.0----30.14-- 90.0----
2024-07-13 01:48 pmWSW 8.0 11.1----30.14- 92.3 90.0----
2024-07-13 01:42 pm SW 8.9 11.1----30.14- 91.0 90.0----
2024-07-13 01:36 pm SW 7.0 9.9----30.14- 91.0 90.0----
2024-07-13 01:30 pm SW 7.0 9.9----30.14- 90.9 90.0----
2024-07-13 01:24 pm SW 7.0 9.9----30.15- 90.5 90.0----
2024-07-13 01:18 pmSSW 7.0 9.9----30.15- 91.4 89.8----
2024-07-13 01:12 pmSSW 7.0 12.0----30.14- 92.5 89.8----
2024-07-13 01:06 pmSSW 8.0 11.1----30.15- 93.2 89.8----
2024-07-13 01:00 pm S 7.0 9.9----30.15+0.00 93.7 89.8----
2024-07-13 12:54 pm S 6.0 8.0----30.15- 93.7 89.8----
2024-07-13 12:48 pm S 5.1 9.9----30.15-------
2024-07-13 12:42 pmSSW 7.0 9.9----30.15-------
2024-07-13 12:36 pm S 8.0 11.1----30.15-------
2024-07-13 12:30 pmSSE 8.9 13.0----30.15- 93.2 89.6----
2024-07-13 12:24 pmSSE 8.9 12.0----30.15- 93.6 89.6----
2024-07-13 12:18 pmSSE 6.0 8.9----30.15- 93.7 89.4----
2024-07-13 12:12 pm S 7.0 8.9----30.15- 94.1 89.2----
2024-07-13 12:06 pmSSE 7.0 8.0----30.15- 93.2 89.1----
2024-07-13 12:00 pm-------30.15+0.00- 88.9----
2024-07-13 11:54 am-------30.15-- 88.7----
2024-07-13 11:48 amENE 1.9 2.9----30.15- 94.6 88.5----
2024-07-13 11:42 amNNE 2.9 4.1----30.15- 96.8 88.3----
2024-07-13 11:36 amNNE 4.1 5.1----30.16- 96.3 88.2----
2024-07-13 11:30 am N 4.1 5.1------ 94.6 87.8----
2024-07-13 11:24 amNNE 5.1 6.0------ 95.0 87.8----
2024-07-13 11:18 am N 5.1 6.0----30.16-------
2024-07-13 11:12 amNNE 4.1 5.1----30.16-------
2024-07-13 11:06 am N 5.1 5.1----30.16-------
2024-07-13 11:00 amNNE 4.1 4.1----30.16+0.01 95.0 86.9----
2024-07-13 10:54 am NW 1.9 5.1----30.16- 98.2 86.7----
2024-07-13 10:48 amNNW 5.1 7.0----30.16- 94.3 86.7----
2024-07-13 10:42 am N 1.9 5.1----30.16- 95.4 86.5----
2024-07-13 10:36 amNNW 6.0 8.9----30.16- 93.4 86.5----
2024-07-13 10:30 am N 6.0 8.9----30.16- 93.2 86.5----
2024-07-13 10:24 am NW 5.1 8.0----30.16- 93.6 86.5----
2024-07-13 10:18 amWNW 6.0 8.9----30.16- 93.9 86.4----
2024-07-13 10:12 amWNW 6.0 8.0----30.16- 94.1 86.4----
2024-07-13 10:06 amWNW 5.1 8.9----30.16- 93.4 86.4----
2024-07-13 10:00 amWNW 7.0 8.0----30.16+0.03 92.3 86.4----
2024-07-13 09:54 amNNW 7.0 8.9----30.16- 90.1 86.4----
2024-07-13 09:48 amNNW 7.0 8.0----30.16- 90.1 86.4----
2024-07-13 09:42 amWNW 4.1 8.0----30.16- 90.9 86.4----
2024-07-13 09:36 amWNW 6.0 8.9----30.16- 90.3 86.4----
2024-07-13 09:30 am NW 7.0 8.9----30.16- 89.8 86.4----
2024-07-13 09:24 am NW 6.0 8.0----30.16- 90.0 86.4----
2024-07-13 09:18 am NW 6.0 8.9----30.16- 89.8 86.4----
2024-07-13 09:12 amWNW 7.0 8.9----30.16- 90.0 86.2----
2024-07-13 09:06 amWNW 6.0 8.0----30.16- 90.5 86.2----
2024-07-13 09:00 am W 6.0 7.0----30.16+0.05 90.9 86.2----
2024-07-13 08:54 amWNW 6.0 8.0----30.16- 91.6 86.2----
2024-07-13 08:48 amWNW 7.0 8.9----30.16- 91.8 86.2----
2024-07-13 08:42 amWNW 7.0 8.9----30.16- 91.0 86.2----
2024-07-13 08:36 amWNW 6.0 8.9----30.15- 91.0 86.2----
2024-07-13 08:30 am NW 6.0 8.0----30.15- 90.7 86.2----
2024-07-13 08:24 am NW 6.0 8.0----30.15- 90.7 86.2----
2024-07-13 08:18 amWNW 6.0 8.0----30.15- 91.0 86.2----
2024-07-13 08:12 amWNW 5.1 7.0----30.15- 91.2 86.2----
2024-07-13 08:06 amWNW 5.1 6.0----30.15- 90.5 86.2----
2024-07-13 08:00 amWNW 5.1 7.0----30.14+0.05 90.9 86.2----
2024-07-13 07:54 amWNW 6.0 8.0----30.14- 90.1 86.4----
2024-07-13 07:48 amWNW 5.1 8.0----30.14- 89.8 86.4----
2024-07-13 07:42 amWNW 5.1 6.0----30.14- 89.8 86.4----
2024-07-13 07:36 am NW 5.1 7.0----30.14- 89.1 86.4----
2024-07-13 07:30 am NW 5.1 7.0----30.14- 88.7 86.4----
2024-07-13 07:24 amWNW 5.1 6.0----30.13- 88.9 86.4----
2024-07-13 07:18 amWNW 5.1 5.1----30.13- 88.7 86.4----
2024-07-13 07:12 amWNW 4.1 5.1----30.13- 88.5 86.4----
2024-07-13 07:06 amWNW 5.1 6.0----30.13- 87.8 86.4----
2024-07-13 07:00 amWNW 5.1 5.1----30.13+0.04 87.1 86.4----
2024-07-13 06:54 amWNW 4.1 5.1----30.12- 87.1 86.4----
2024-07-13 06:48 amWNW 4.1 5.1----30.12-- 86.4----
2024-07-13 06:42 amWNW 4.1 5.1----30.12-- 86.4----
2024-07-13 06:36 am W 2.9 4.1----30.12-- 86.4----
2024-07-13 06:30 am W 2.9 5.1----30.11-- 86.4----
2024-07-13 06:24 am W 4.1 5.1----30.11-- 86.4----
2024-07-13 06:18 amWNW 4.1 5.1----30.11- 84.0 86.4----
2024-07-13 06:12 amWNW 4.1 5.1----30.11- 84.0 86.4----
2024-07-13 06:06 amWNW 4.1 4.1----30.11- 84.0 86.4----
2024-07-13 06:00 amWNW 4.1 5.1----30.11- 84.2 86.4----
2024-07-13 05:54 amWNW 2.9 4.1----30.11- 84.2 86.4----
2024-07-13 05:48 am W 2.9 4.1----30.11- 84.2 86.4----
2024-07-13 05:42 am W 2.9 5.1----30.10- 84.2 86.2----
2024-07-13 05:36 am W 4.1 5.1----30.10- 84.2 86.2----
2024-07-13 05:30 amWNW 4.1 5.1----30.10- 84.4 86.2----
2024-07-13 05:24 am W 4.1 6.0----30.10- 84.6 86.2----
2024-07-13 05:18 am W 5.1 6.0----30.10- 84.6 86.2----
2024-07-13 05:12 am W 4.1 6.0----30.10- 84.7 86.4----
2024-07-13 05:06 am W 4.1 8.0----30.09- 84.9 86.4----
2024-07-13 05:00 am W 5.1 7.0----30.09+0.02- 86.4----
2024-07-13 04:54 am W 5.1 6.0----30.09-- 86.4----
2024-07-13 04:48 am W 5.1 7.0----30.09-- 86.4----
2024-07-13 04:42 am W 5.1 6.0----30.09-- 86.4----
2024-07-13 04:36 am W 5.1 7.0----30.09-- 86.4----
2024-07-13 04:30 am W 4.1 6.0----30.09- 85.3 86.4----
2024-07-13 04:24 am W 4.1 6.0----30.09- 85.5 86.4----
2024-07-13 04:18 amWSW 4.1 7.0----30.09- 85.5 86.4----
2024-07-13 04:12 amWSW 5.1 7.0----30.09- 85.5 86.4----
2024-07-13 04:06 am W 5.1 7.0----30.09- 85.5 86.4----
2024-07-13 04:00 am W 5.1 7.0----30.09+0.00 85.6 86.4----
2024-07-13 03:54 am W 5.1 6.0----30.09- 85.6 86.4----
2024-07-13 03:48 am W 4.1 5.1----30.09- 85.5 86.4----
2024-07-13 03:42 am W 4.1 5.1----30.09- 85.5 86.4----
2024-07-13 03:36 amWSW 5.1 6.0----30.08- 85.5 86.4----
2024-07-13 03:30 amWSW 4.1 5.1----30.08- 85.5 86.5----
2024-07-13 03:24 am W 4.1 7.0----30.08- 85.6 86.5----
2024-07-13 03:18 am W 4.1 6.0------ 85.6 86.5----
2024-07-13 03:12 amWSW 5.1 6.0------ 85.6 86.5----
2024-07-13 03:06 amWSW 2.9 6.0------ 85.6 86.5----
2024-07-13 03:00 amWSW 4.1 6.0------ 85.8 86.5----
2024-07-13 02:54 amWSW 4.1 6.0------ 85.6 86.5----
2024-07-13 02:48 amWSW 4.1 6.0----30.07- 85.6 86.7----
2024-07-13 02:42 am W 5.1 6.0----30.07- 85.8 86.7----
2024-07-13 02:36 am W 4.1 6.0----30.07- 85.8 86.7----
2024-07-13 02:30 amWSW 4.1 5.1----30.07- 85.8 86.7----
2024-07-13 02:24 amWSW 2.9 5.1----30.07- 85.8 86.7----
2024-07-13 02:18 amWSW 2.9 4.1----30.07- 85.8 86.7----
2024-07-13 02:12 amWSW 2.9 5.1----30.07- 86.0 86.9----
2024-07-13 02:06 amWSW 2.9 6.0----30.08- 86.0 86.9----
2024-07-13 02:00 amWSW 4.1 5.1----30.08-0.01 86.0 86.9----
2024-07-13 01:54 amWSW 2.9 4.1----30.08- 86.2 86.9----
2024-07-13 01:48 amWSW 2.9 4.1----30.08- 86.2 86.9----
2024-07-13 01:42 amWSW 2.9 5.1----30.08- 86.2 86.9----
2024-07-13 01:36 am W 2.9 4.1----30.09- 86.5 86.9----
2024-07-13 01:30 am W 2.9 4.1----30.09- 86.5 86.9----
2024-07-13 01:24 am W 2.9 5.1----30.09- 86.7 86.9----
2024-07-13 01:18 am W 2.9 4.1----30.09- 86.9 86.9----
2024-07-13 01:12 am W 2.9 4.1----30.09- 87.1 87.1----
2024-07-13 01:06 amWSW 2.9 4.1----30.09- 87.3 87.1----
2024-07-13 01:00 amWSW 2.9 4.1----30.08+0.00 87.3 87.1----
2024-07-13 12:54 am SW 4.1 5.1----30.09- 87.6 87.1----
2024-07-13 12:48 am SW 2.9 5.1----30.09- 87.6 87.1----
2024-07-13 12:42 amWSW 4.1 5.1----30.09- 87.4 87.1----
2024-07-13 12:36 am SW 4.1 5.1----30.09- 87.8 87.1----
2024-07-13 12:30 am SW 4.1 6.0----30.09- 87.8 87.1----
2024-07-13 12:24 am SW 5.1 6.0----30.09- 88.0 87.1----
2024-07-13 12:18 am SW 2.9 5.1----30.09- 87.6 87.1----
2024-07-13 12:12 am SW 2.9 5.1----30.09- 87.8 87.1----
2024-07-13 12:06 am SW 4.1 5.1----30.09- 87.8 87.1----
2024-07-13 12:00 amSSW 1.9 4.1----30.09+0.01 87.8 87.3----
2024-07-12 11:54 pmSSW 2.9 4.1----30.09- 87.8 87.3----
2024-07-12 11:48 pm SW 1.9 2.9----30.09- 87.8 87.3----
2024-07-12 11:42 pm SW 2.9 4.1----30.09- 87.8 87.3----
2024-07-12 11:36 pm SW 4.1 6.0----30.09- 87.8 87.3----
2024-07-12 11:30 pm SW 4.1 6.0----30.09- 87.8 87.3----
2024-07-12 11:24 pm SW 5.1 7.0----30.09- 88.0 87.3----
2024-07-12 11:18 pm SW 5.1 7.0----30.09- 88.3 87.3----
2024-07-12 11:12 pmSSW 4.1 7.0----30.09- 88.3 87.3----
2024-07-12 11:06 pmSSW 5.1 5.1----30.09- 88.3 87.3----
2024-07-12 11:00 pm SW 4.1 5.1----30.09+0.02 88.0 87.3----
2024-07-12 10:54 pmSSW 4.1 6.0----30.09- 88.2 87.3----